Weather Roundup
Issued by NWS

Home | Current Version | Previous Version | Text Only | Print | Product List | Glossary On
Versions: 1 2 3 4 5 6 7 8 9 10 11 12 13 14 15 16 17 18 19 20 21 22 23 24 25 26 27 28 29 30 31 32 33 34 35 36 37 38 39 40 41 42 43 44 45 46 47 48 49 50
000
NZUS93 KARX 272310
HRRWXR

CURRENT HOURLY OBSERVATIONS ACROSS
MUCH OF THE UPPER MISSISSIPPI VALLEY
NATIONAL WEATHER SERVICE LA CROSSE WI
500 PM CST TUE JAN 27 2015


...SOUTHEAST MINNESOTA...


CITY           SKY/WX    TMP DP  RH WIND       PRES   REMARKS
ROCHESTER      CLOUDY    29  24  82 SE9       30.15F WCI  20
ROCHESTER/MAYO CLOUDY    29  23  77 SE7       30.15F WCI  22
WINONA         CLOUDY    30  23  74 E6        30.20F WCI  24
AUSTIN         CLOUDY    30  28  93 SE7       30.14F WCI  23
ALBERT LEA     CLOUDY    34  28  80 S8        30.13S WCI  27
DODGE CENTER   CLOUDY    30  28  93 SE10      30.13F WCI  21
PRESTON        CLOUDY    28  24  84 SE6       30.16F WCI  21
OWATONNA       CLOUDY    32  27  80 SE8       30.13F WCI  25
FARIBAULT      CLOUDY    34  27  75 SE10      30.14S WCI  26
$$

...ELSEWHERE IN MINNESOTA...


CITY           SKY/WX    TMP DP  RH WIND       PRES   REMARKS
MINNEAPOLIS    CLOUDY    32  25  75 SE8       30.15S WCI  25
INTNL FALLS    CLOUDY    30  24  78 SE7       30.05F WCI  23
DULUTH         CLOUDY    28  22  78 S7        30.10S WCI  21
RED WING       CLOUDY    30  25  80 SE8       30.17R WCI  23
REDWOOD FALLS  CLOUDY    35  31  85 SE14      30.07F WCI  26
MANKATO        CLOUDY    36  28  75 SE10      30.11F WCI  28
WORTHINGTON    PTCLDY    37  32  81 SE12      30.05S WCI  30
FAIRMONT       CLOUDY    36  28  75 SE12      30.10F WCI  27
$$

...SOUTHWEST WISCONSIN...


CITY           SKY/WX    TMP DP  RH WIND       PRES   REMARKS
LA CROSSE      CLOUDY    30  21  69 SE3       30.21S
PRAIRIE DU CHI CLOUDY    30  22  71 E5        30.23R WCI  25
BOSCOBEL       CLOUDY    29  21  72 CALM      30.24R
LONE ROCK      CLOUDY    28  23  81 SE3       30.23R HAZE
PLATTEVILLE    CLOUDY    28  22  81 CALM      30.21R
FORT MC COY    CLOUDY    27  21  78 S3        30.22F
CAMP DOUGLAS   CLOUDY    27  27 100 S3        30.21R
VIROQUA        CLOUDY    26  22  85 SE3       30.19S
WIS DELLS      CLOUDY    26  24  91 CALM      30.21R FOG
$$

...ELSEWHERE IN WISCONSIN...


CITY           SKY/WX    TMP DP  RH WIND       PRES   REMARKS
MILWAUKEE      MOCLDY    26  15  63 NE5       30.24R WCI  20
MADISON        CLOUDY    27  22  81 NE3       30.21S
GREEN BAY      CLOUDY    25  17  72 CALM      30.25R
EAU CLAIRE     CLOUDY    29  20  69 SE7       30.18S WCI  22
BLACK RVR FLS  CLOUDY    28  22  76 SE3       30.21S
MEDFORD        CLOUDY    25  19  80 SE3       30.17S
WAUSAU         CLOUDY    24  20  84 CALM      30.18R
WIS RAPIDS     CLOUDY    26  21  81 CALM      30.23R
MARSHFIELD     CLOUDY    25  20  81 S3        30.19R
RICE LAKE      CLOUDY    28  22  78 S6        30.17F WCI  22
$$

...NORTHEAST IOWA...


CITY           SKY/WX    TMP DP  RH WIND       PRES   REMARKS
DECORAH        CLOUDY    28  23  80 E6        30.18S WCI  22
MASON CITY     CLOUDY    33  28  81 SE10      30.15S WCI  25
CHARLES CITY   CLOUDY    32  30  93 SE7       30.17S WCI  26
OELWEIN        CLOUDY    30  25  80 E5        30.19S WCI  25
$$

...ELSEWHERE IN IOWA...


CITY           SKY/WX    TMP DP  RH WIND       PRES   REMARKS
DES MOINES     PTCLDY    43  31  62 SE10      30.13S
IOWA CITY      CLOUDY    31  25  78 E8        30.23S WCI  23
FORT DODGE     CLEAR     39  32  75 E9        30.11S WCI  33
$$

...NORTHERN ILLINOIS...


CITY           SKY/WX    TMP DP  RH WIND       PRES   REMARKS
CHICAGO-OHARE  PTCLDY    27  16  63 NE7       30.22R WCI  19
CHICAGO-MIDWAY PTCLDY    29  17  61 N8        30.23R WCI  21
MOLINE         CLOUDY    28  22  78 E8        30.24R WCI  20
ROCKFORD       MOCLDY    30  22  72 CALM      30.24R
PEORIA         CLOUDY    32  25  75 NE3       30.24R
$$

NOTE: "FAIR" INDICATES FEW OR NO CLOUDS BELOW 12,000 FEET WITH NO
SIGNIFICANT WEATHER AND/OR OBSTRUCTIONS TO VISIBILITY. WIND
SPEEDS ARE IN MILES-PER-HOUR.



USA.gov is the U.S. government's official web portal to all federal, state and local government web resources and services.